Racecast

MHSAA LP D1 State Finals

Michigan International Speedway (MIS) · 5000m · Girls · Compiled · MI

227 runners from 1 division

These divisions were run separately. This is how their times compare, not how they finished — the places and scores below were never contested.

View full meet →

Team scores

Place Team Points 12345 67
1 Birmingham Seaholm (MI) 69 3 10 12 17 27 82 103
2 Grosse Pointe South (MI) 88 1 7 11 26 43 61 66
3 Saline (MI) 101 5 19 20 25 32 36 40
4 TC Central (Traverse City) (MI) 245 18 41 49 60 77 80 92
5 Northville (MI) 265 34 42 54 63 72 98 130
6 Sterling Heights Stevenson (MI) 273 16 24 37 64 132 155 157
7 Brighton (MI) 277 33 35 51 65 93 97 99
8 Salem (MI) 296 9 52 59 86 90 117 166
9 Grand Haven (MI) 306 15 22 76 89 104 146 159
10 Rockford (MI) 313 39 50 67 74 83 106 116
11 Rochester Adams (MI) 338 2 4 100 110 122 165 173
12 Grandville (MI) 343 13 53 58 107 112 119 143
13 Oxford (MI) 365 6 44 55 118 142 145 160
14 Clarkston (MI) 373 31 38 46 121 137 139 149
15 Hudsonville (MI) 374 8 48 81 108 129 185
16 Caledonia (MI) 422 14 21 123 131 133 140 151
17 Midland Dow (MI) 425 29 47 56 141 152 156 168
18 Grand Ledge (MI) 426 45 69 84 102 126 167 178
19 Highland-Milford (MI) 435 73 85 88 94 95 96 148
20 Waterford Mott (MI) 449 23 62 105 115 144 183 186
21 Livonia Churchill (MI) 469 30 78 114 120 127 161 177
22 East Lansing (MI) 474 28 71 87 135 153 170 182
23 Dexter (MI) 503 57 75 109 128 134 147 163
24 Troy (MI) 520 70 101 111 113 125 136 150
25 Temperance Bedford (MI) 690 68 138 158 162 164 172 175
26 Davison (MI) 737 91 124 169 174 179 180 184
27 Woodhaven Brownstown (MI) 761 79 154 171 176 181 187 188

Not scored, fewer than five finishers: Ann Arbor Huron (2), Jenison (2), Ypsilanti Lincoln (2), West Bloomfield (1), Rochester (1), Flushing (1), Beverly Hills Groves (1), Clinton Twp. Chippewa Valley (1), Muskegon Mona Shores (1), New Baltimore Anchor Bay (1), Plymouth (1), TC West (Traverse City) (1), Grand Blanc (1), Novi (1), Portage Northern (1), Bay City Western (1), Allen Park (1), Warren Mott (1), Utica Eisenhower (1), Holt (1), Romeo (1), Port Huron (1), Farmington Hills Mercy (1), Livonia Stevenson (1), Macomb Dakota (1), Ortonville Brandon (1), Grosse Pointe North (1), Saginaw Heritage (1), Kalamazoo Loy Norrix (1), FHC GR Forest Hills Central (1), Holland West Ottawa (1), Mattawan (1), Ann Arbor Skyline (1), Okemos (1), Ann Arbor Pioneer (1), Howell (1)

Results

Place Athlete Grade School Time Rating Points Actual race
1 Erin Finn 12 West Bloomfield (MI) 1 17:07.9 142.0 1
2 Hannah Meier 12 Grosse Pointe South (MI) 1 17:34.5 138.4 1 2
3 Jamie Morrissey 12 Rochester Adams (MI) 1 17:48.7 136.6 2 3
4 Aubrey Wilberding 12 Birmingham Seaholm (MI) 1 17:55.9 135.6 3 4
5 Gabrielle Thivierge 12 Rochester Adams (MI) 2 17:56.2 135.6 4 5
6 Elianna Shwayder 11 Saline (MI) 1 18:02.7 134.8 5 6
7 Brooke Kovacic 12 Oxford (MI) 1 18:04.1 134.6 6 7
8 Ersula Farrow 10 Grosse Pointe South (MI) 2 18:05.3 134.5 7 8
9 Jessica Goethals 11 Rochester (MI) 1 18:09.9 133.9 9
10 Alex Berends 11 Hudsonville (MI) 1 18:13.7 133.4 8 10
11 Kayla Kavulich 11 Salem (MI) 1 18:15.6 133.2 9 11
12 Tess Wilberding 12 Birmingham Seaholm (MI) 2 18:16.4 133.1 10 12
13 Addie May 10 Flushing (MI) 1 18:18.5 132.8 13
14 Kelsie Schwartz 11 Grosse Pointe South (MI) 3 18:22.9 132.3 11 14
15 Marissa Dobry 9 Birmingham Seaholm (MI) 3 18:23.9 132.2 12 15
16 Valerie Wierenga 9 Grandville (MI) 1 18:24.6 132.1 13 16
17 Hannah Schroder 12 Caledonia (MI) 1 18:25.8 132.0 14 17
18 Roxy Glasser 11 Grand Haven (MI) 1 18:26.2 131.9 15 18
19 Allison Shannon 9 Sterling Heights Stevenson (MI) 1 18:26.8 131.8 16 19
20 Rachel DaDamio 10 Birmingham Seaholm (MI) 4 18:27.9 131.7 17 20
21 Jackie Feist 11 Beverly Hills Groves (MI) 1 18:28.4 131.7 21
22 Rachel Walney 11 Clinton Twp. Chippewa Valley (MI) 1 18:28.9 131.6 22
23 Alexandria Cell 11 Ann Arbor Huron (MI) 1 18:29.1 131.6 23
24 Molly Peregrine 11 TC Central (Traverse City) (MI) 1 18:29.9 131.5 18 24
25 Lauren Green 10 Saline (MI) 2 18:30.5 131.4 19 25
26 Gillian Walter 9 Saline (MI) 3 18:30.8 131.4 20 26
27 Olivia Bordewyk 10 Caledonia (MI) 2 18:31.1 131.3 21 27
28 Claire Borchers 11 Grand Haven (MI) 2 18:31.3 131.3 22 28
29 Daya Wagh 12 Waterford Mott (MI) 1 18:32.0 131.2 23 29
30 Samantha Hanson 9 Sterling Heights Stevenson (MI) 2 18:32.1 131.2 24 30
31 Gloria Park 11 Saline (MI) 4 18:32.2 131.2 25 31
32 Haley Meier 12 Grosse Pointe South (MI) 4 18:32.5 131.2 26 32
33 Audrey Belf 10 Birmingham Seaholm (MI) 5 18:32.8 131.1 27 33
34 Sarah Goble 10 East Lansing (MI) 1 18:33.3 131.1 28 34
35 Ellie Leonard 11 Jenison (MI) 1 18:33.8 131.0 35
36 Bailey Johnson 10 Jenison (MI) 2 18:36.7 130.7 36
37 Kali Dent 11 Midland Dow (MI) 1 18:38.6 130.5 29 37
38 Kerigan Riley 12 Livonia Churchill (MI) 1 18:39.1 130.4 30 38
39 Serena Gale-Butto 12 Muskegon Mona Shores (MI) 1 18:39.2 130.4 39
40 Nicole Hanson 9 Clarkston (MI) 1 18:40.2 130.3 31 40
41 Macy Gustavus 9 New Baltimore Anchor Bay (MI) 1 18:41.8 130.1 41
42 Abby Rentschler 10 Saline (MI) 5 18:44.5 129.8 32 42
43 Allison Lunau 12 Brighton (MI) 1 18:45.1 129.7 33 43
44 Erin Dunne 12 Northville (MI) 1 18:45.9 129.6 34 44
45 Hayley Williamson 12 Brighton (MI) 2 18:47.2 129.5 35 45
46 Hannah Cummings 9 Saline (MI) 6 18:49.0 129.3 36 46
47 Ashlie Baumann 10 Sterling Heights Stevenson (MI) 3 18:49.4 129.2 37 47
48 Marina DeBiasi 11 Plymouth (MI) 1 18:49.5 129.2 48
49 Lynsie Gram 10 Clarkston (MI) 2 18:49.7 129.2 38 49
50 Morgan Harney 11 Rockford (MI) 1 18:51.2 129.0 39 50
51 Alyssa Cummings 12 Saline (MI) 7 18:52.0 128.9 40 51
52 Jessica Gockley-Day 9 TC West (Traverse City) (MI) 1 18:52.9 128.8 52
53 Hanne Christensen 11 Grand Blanc (MI) 1 18:53.5 128.8 53
54 Jackie Mullins 12 Novi (MI) 1 18:54.9 128.6 54
55 Graceanne Tarsa 10 TC Central (Traverse City) (MI) 2 18:55.6 128.5 41 55
56 Taleen Shahrigian 11 Northville (MI) 2 18:56.5 128.4 42 56
57 Mary Spencer 10 Grosse Pointe South (MI) 5 18:56.8 128.4 43 57
58 Jenna Feeney 10 Oxford (MI) 2 18:57.2 128.3 44 58
59 Krista Magness 11 Grand Ledge (MI) 1 18:57.3 128.3 45 59
60 Erin Billette 12 Clarkston (MI) 3 18:57.6 128.3 46 60
61 Jordan Storer 11 Midland Dow (MI) 2 18:57.8 128.3 47 61
62 Alexa VanderHoff 9 Portage Northern (MI) 1 18:59.1 128.1 62
63 Kelli Jackson 10 Hudsonville (MI) 2 18:59.4 128.1 48 63
64 Madison Marciniak 10 Bay City Western (MI) 1 18:59.6 128.1 64
65 Jordan Mattarella 10 TC Central (Traverse City) (MI) 3 18:59.7 128.1 49 65
66 Morgan Benoit 9 Rockford (MI) 2 18:59.8 128.0 50 66
67 Kirsten McGahan 9 Brighton (MI) 3 19:00.2 128.0 51 67
68 Lauren Arquette 10 Salem (MI) 2 19:00.6 127.9 52 68
69 Sammy Mondry 12 Grandville (MI) 2 19:01.4 127.8 53 69
70 Sabrina Williams 11 Allen Park (MI) 1 19:02.1 127.8 70
71 Alison Robinson 11 Northville (MI) 3 19:02.1 127.8 54 71
72 Hannah Long 9 Oxford (MI) 3 19:02.9 127.7 55 72
73 Ashley Burr 12 Midland Dow (MI) 3 19:04.4 127.5 56 73
74 Alison McLean 9 Dexter (MI) 1 19:04.7 127.5 57 74
75 Nicole VacaGuzman 10 Grandville (MI) 3 19:05.1 127.4 58 75
76 Allie Knoll 11 Warren Mott (MI) 1 19:05.2 127.4 76
77 Anya Cho 10 Salem (MI) 3 19:05.3 127.4 59 77
78 Joy Reist 11 TC Central (Traverse City) (MI) 4 19:05.3 127.4 60 78
79 Christina Firl 12 Grosse Pointe South (MI) 6 19:05.8 127.4 61 79
80 Sarah Hale 11 Waterford Mott (MI) 2 19:06.2 127.3 62 80
81 Erin Zimmer 11 Northville (MI) 4 19:06.5 127.3 63 81
82 Jessica Gaines 12 Sterling Heights Stevenson (MI) 4 19:06.6 127.3 64 82
83 Jenna Sica 9 Brighton (MI) 4 19:06.7 127.3 65 83
84 Megan Sklarski 10 Grosse Pointe South (MI) 7 19:07.4 127.2 66 84
85 Lauren Brasure 11 Rockford (MI) 3 19:08.3 127.1 67 85
86 Rachel Boulton 9 Temperance Bedford (MI) 1 19:09.3 127.0 68 86
87 Taryn Hubaker 10 Grand Ledge (MI) 2 19:09.6 126.9 69 87
88 Abby Green 11 Troy (MI) 1 19:10.4 126.8 70 88
89 Madeleine Glew 11 East Lansing (MI) 2 19:11.2 126.8 71 89
90 Nicole Mosteller 11 Northville (MI) 5 19:11.8 126.7 72 90
91 Brianna Mozariwskyj 9 Utica Eisenhower (MI) 1 19:12.4 126.6 91
92 Megan Kline 9 Holt (MI) 1 19:14.5 126.4 92
93 Rachel Barrett 11 Highland-Milford (MI) 1 19:15.1 126.3 73 93
94 Kerianne Schoff 10 Rockford (MI) 4 19:15.6 126.3 74 94
95 Jessica Johnson 11 Ann Arbor Huron (MI) 2 19:16.0 126.2 95
96 Alexandra Ammann 10 Dexter (MI) 2 19:16.1 126.2 75 96
97 Alicia Arnold 11 Romeo (MI) 1 19:16.7 126.2 97
98 Malea Teerman 9 Grand Haven (MI) 3 19:16.7 126.2 76 98
99 Ashley Ko 10 TC Central (Traverse City) (MI) 5 19:17.2 126.1 77 99
100 Sydney Anderson 12 Livonia Churchill (MI) 2 19:17.4 126.1 78 100
101 Aly Trapp 10 Woodhaven Brownstown (MI) 1 19:17.7 126.0 79 101
102 Kalina Pfannenstiel 10 TC Central (Traverse City) (MI) 6 19:17.8 126.0 80 102
103 Janey Berends 11 Hudsonville (MI) 3 19:20.5 125.8 81 103
104 Julia Demko 10 Birmingham Seaholm (MI) 6 19:21.0 125.7 82 104
105 Maja Hill 10 Rockford (MI) 5 19:22.9 125.5 83 105
106 Allison Dible 12 Grand Ledge (MI) 3 19:23.6 125.4 84 106
107 Alyssa Byndas 11 Highland-Milford (MI) 2 19:25.3 125.2 85 107
108 Alejandra Beltran 12 Salem (MI) 4 19:25.4 125.2 86 108
109 Stephanie Vanis 9 East Lansing (MI) 3 19:25.6 125.2 87 109
110 Lina Erlingis 11 Highland-Milford (MI) 3 19:25.6 125.2 88 110
111 Lindy Vallier 12 Grand Haven (MI) 4 19:26.2 125.1 89 111
112 Alexis Foley 12 Salem (MI) 5 19:26.3 125.1 90 112
113 Rachel Bonner 9 Port Huron (MI) 1 19:26.8 125.1 113
114 Amanda George 10 Davison (MI) 1 19:28.6 124.9 91 114
115 Lila Dreves 12 TC Central (Traverse City) (MI) 7 19:28.7 124.9 92 115
116 Anna Ellison 12 Brighton (MI) 5 19:30.7 124.7 93 116
117 Eve Hemingway 9 Highland-Milford (MI) 4 19:31.2 124.6 94 117
118 Madison Paquette 10 Highland-Milford (MI) 5 19:32.1 124.5 95 118
119 Gabrielle Byndas 9 Highland-Milford (MI) 6 19:32.5 124.5 96 119
120 Natalie Monroe 11 Brighton (MI) 6 19:33.3 124.4 97 120
121 Emma Herrmann 9 Northville (MI) 6 19:34.2 124.3 98 121
122 Jourdan Davis 10 Brighton (MI) 7 19:36.2 124.1 99 122
123 Lydia Stanley 12 Rochester Adams (MI) 3 19:37.5 123.9 100 123
124 Allysen Eads 10 Farmington Hills Mercy (MI) 1 19:37.6 123.9 124
125 Rachel Loken 11 Troy (MI) 2 19:38.0 123.9 101 125
126 Adela Myles 11 Ypsilanti Lincoln (MI) 1 19:38.7 123.8 126
127 Christy Snelgrove 12 Grand Ledge (MI) 4 19:38.8 123.8 102 127
128 Danielle Bentzley 11 Birmingham Seaholm (MI) 7 19:38.9 123.8 103 128
129 Hannah Kenny 9 Grand Haven (MI) 5 19:38.9 123.8 104 129
130 Courtney Munley 12 Waterford Mott (MI) 3 19:39.7 123.7 105 130
131 Natalie Napolillo 10 Rockford (MI) 6 19:39.8 123.7 106 131
132 Lindsey Gallagher 10 Livonia Stevenson (MI) 1 19:40.8 123.6 132
133 Christina Micale 12 Macomb Dakota (MI) 1 19:42.1 123.5 133
134 Paige Arney 10 Ortonville Brandon (MI) 1 19:42.4 123.4 134
135 Ally Nyboer 9 Grandville (MI) 4 19:43.6 123.3 107 135
136 Allison Francis 12 Grosse Pointe North (MI) 1 19:43.8 123.3 136
137 Nichole Clement 10 Saginaw Heritage (MI) 1 19:43.9 123.3 137
138 Megan Sanchez 12 Hudsonville (MI) 4 19:44.1 123.2 108 138
139 Robin Jackson 11 Dexter (MI) 3 19:44.5 123.2 109 139
140 Caroline Kletzien 11 Rochester Adams (MI) 4 19:45.2 123.1 110 140
141 Lauren Miller 11 Troy (MI) 3 19:46.1 123.0 111 141
142 Jade Hubbard 12 Kalamazoo Loy Norrix (MI) 1 19:46.8 123.0 142
143 Ally Destefano 9 FHC GR Forest Hills Central (MI) 1 19:46.9 123.0 143
144 Carlie Snoap 12 Grandville (MI) 5 19:47.2 122.9 112 144
145 Haley Wendt 12 Troy (MI) 4 19:47.3 122.9 113 145
146 Michelle Azar 12 Livonia Churchill (MI) 3 19:47.5 122.9 114 146
147 Savannah Schaeffer 11 Waterford Mott (MI) 4 19:47.7 122.9 115 147
148 Maegan Roach 10 Rockford (MI) 7 19:48.0 122.8 116 148
149 Natasha Stevenson 11 Salem (MI) 6 19:48.4 122.8 117 149
150 Reilly Squarcia 9 Oxford (MI) 4 19:49.5 122.7 118 150
151 Rachael Webb 11 Grandville (MI) 6 19:52.3 122.4 119 151
152 Megan McFarlane 11 Livonia Churchill (MI) 4 19:53.0 122.3 120 152
153 Kaitlin Catania 12 Clarkston (MI) 4 19:54.8 122.1 121 153
154 Monica Rasmussen 12 Rochester Adams (MI) 5 19:55.5 122.1 122 154
155 Hannah Hazelbach 10 Caledonia (MI) 3 19:55.7 122.0 123 155
156 Katherine Hoekstra 9 Holland West Ottawa (MI) 1 19:56.2 122.0 156
157 Jordann McDermitt 11 Davison (MI) 2 19:56.3 122.0 124 157
158 Haley Burns 12 Troy (MI) 5 19:57.8 121.8 125 158
159 Olivia Conway 10 Grand Ledge (MI) 5 19:57.9 121.8 126 159
160 Vivien Okechukwu 12 Livonia Churchill (MI) 5 19:58.2 121.8 127 160
161 Cailin McLean 11 Dexter (MI) 4 20:00.6 121.5 128 161
162 Abby Berends 11 Hudsonville (MI) 5 20:02.3 121.4 129 162
163 Rachel Coleman 11 Northville (MI) 7 20:03.9 121.2 130 163
164 Amanda Sorokin 9 Caledonia (MI) 4 20:05.4 121.1 131 164
165 Miranda Wolanin 11 Sterling Heights Stevenson (MI) 5 20:06.0 121.0 132 165
166 Allie Donalson 11 Caledonia (MI) 5 20:07.2 120.9 133 166
167 Elizabeth Greve 10 Dexter (MI) 5 20:07.6 120.8 134 167
168 Hannah Busch 11 East Lansing (MI) 4 20:08.4 120.8 135 168
169 Maral Toukhanian 12 Troy (MI) 6 20:08.4 120.8 136 169
170 Sage Beauregard 11 Clarkston (MI) 5 20:10.5 120.6 137 170
171 Roma Lucarelli 9 Temperance Bedford (MI) 2 20:13.1 120.3 138 171
172 Molly Jeffers 12 Clarkston (MI) 6 20:13.1 120.3 139 172
173 Alaina Smith 10 Mattawan (MI) 1 20:15.1 120.1 173
174 Holly Rave 11 Caledonia (MI) 6 20:15.3 120.1 140 174
175 Kayla Contardi 12 Midland Dow (MI) 4 20:15.5 120.1 141 175
176 Lauren Halpern 12 Ann Arbor Skyline (MI) 1 20:17.4 119.9 176
177 Cristiana Bruce 9 Oxford (MI) 5 20:17.5 119.9 142 177
178 Allison Utting 10 Grandville (MI) 7 20:18.0 119.8 143 178
179 Bailie Strong 10 Waterford Mott (MI) 5 20:18.3 119.8 144 179
180 Sabrina Smith 10 Oxford (MI) 6 20:19.2 119.7 145 180
181 Mikayla Rowden 10 Grand Haven (MI) 6 20:24.8 119.2 146 181
182 Paige O'Piela 10 Dexter (MI) 6 20:24.9 119.1 147 182
183 Brenna Lovera 10 Highland-Milford (MI) 7 20:25.0 119.1 148 183
184 Amanda Chamberlain 12 Clarkston (MI) 7 20:25.8 119.0 149 184
185 Kira Burnett 12 Troy (MI) 7 20:25.9 119.0 150 185
186 Maggie Dejong 11 Caledonia (MI) 7 20:28.9 118.8 151 186
187 Lizzy Burr 10 Midland Dow (MI) 5 20:29.4 118.7 152 187
188 Zoe Morse 9 East Lansing (MI) 5 20:34.2 118.2 153 188
189 Kendra Cook 10 Woodhaven Brownstown (MI) 2 20:34.4 118.2 154 189
190 Gabriella Oveson 11 Sterling Heights Stevenson (MI) 6 20:35.4 118.1 155 190
191 Beth Hoffman 9 Midland Dow (MI) 6 20:38.0 117.9 156 191
192 Isis Gregg 10 Okemos (MI) 1 20:38.1 117.9 192
193 Brooke Owens 12 Sterling Heights Stevenson (MI) 7 20:39.0 117.8 157 193
194 Kaitlyn Leist 11 Temperance Bedford (MI) 3 20:40.5 117.6 158 194
195 Mikayla Takas 10 Grand Haven (MI) 7 20:40.9 117.6 159 195
196 Sommer Desotell 10 Oxford (MI) 7 20:42.6 117.4 160 196
197 Jenna Hickson 11 Livonia Churchill (MI) 6 20:44.9 117.2 161 197
198 Emily Woods 11 Temperance Bedford (MI) 4 20:46.3 117.1 162 198
199 Rylee Hanson 12 Dexter (MI) 7 20:47.0 117.0 163 199
200 Lauren Bules 12 Temperance Bedford (MI) 5 20:47.4 117.0 164 200
201 Mackenzie Ginste 11 Rochester Adams (MI) 6 20:50.0 116.8 165 201
202 Emily Bizon 12 Salem (MI) 7 20:51.0 116.7 166 202
203 Audie Tzalel 12 Ann Arbor Pioneer (MI) 1 20:52.6 116.5 203
204 Marina Geider 11 Ypsilanti Lincoln (MI) 2 20:54.2 116.4 204
205 Annmarie Maher 9 Grand Ledge (MI) 6 20:56.5 116.1 167 205
206 Robyn Young 10 Midland Dow (MI) 7 20:57.7 116.0 168 206
207 Shelby Roesner 10 Davison (MI) 3 20:58.5 116.0 169 207
208 Carla Jones 12 East Lansing (MI) 6 20:58.5 116.0 170 208
209 Melinda Dietz 10 Woodhaven Brownstown (MI) 3 20:59.9 115.8 171 209
210 Sam Kassmakis 11 Temperance Bedford (MI) 6 21:02.4 115.6 172 210
211 Meghan Santella 11 Rochester Adams (MI) 7 21:03.3 115.5 173 211
212 Casey Shafer 12 Davison (MI) 4 21:08.9 115.0 174 212
213 Sam Greeley 10 Temperance Bedford (MI) 7 21:12.6 114.7 175 213
214 Karina Villalobos 10 Woodhaven Brownstown (MI) 4 21:21.3 113.9 176 214
215 Alexis Lombardo 9 Livonia Churchill (MI) 7 21:22.8 113.8 177 215
216 Rebekka Golisch 9 Grand Ledge (MI) 7 21:28.5 113.3 178 216
217 Taylor Grace 11 Howell (MI) 1 21:31.4 113.0 217
218 Elise Close 10 Davison (MI) 5 21:32.6 112.9 179 218
219 Victoria Ostrander 9 Davison (MI) 6 21:36.9 112.5 180 219
220 Tea Greca 10 Woodhaven Brownstown (MI) 5 21:49.9 111.4 181 220
221 Victoria Kelley 9 East Lansing (MI) 7 21:55.1 111.0 182 221
222 Lauren Dybowski 10 Waterford Mott (MI) 6 22:00.1 110.5 183 222
223 Rachel Swanson 10 Davison (MI) 7 22:06.5 110.0 184 223
224 Anna Dolce 11 Hudsonville (MI) 6 22:07.1 110.0 185 224
225 Kristal Denina 12 Waterford Mott (MI) 7 22:15.0 109.3 186 226
226 Courtney Patterson 12 Woodhaven Brownstown (MI) 6 22:19.3 109.0 187 227
227 Hannah Henson 9 Woodhaven Brownstown (MI) 7 22:21.9 108.8 188 228